Regional Weather Roundup
Issued by NWS State College, PA

Home | Current Version | Previous Version | Graphics & Text | Print | Product List | Glossary On
Versions: 1 2 3 4 5 6 7 8 9 10 11 12 13 14 15 16 17 18 19 20 21 22 23 24 25 26 27 28 29 30 31 32 33 34 35 36 37 38 39 40 41 42 43 44 45 46 47 48 49 50
991
ASUS41 KCTP 130203
RWRCTP

REGIONAL WEATHER ROUNDUP
NATIONAL WEATHER SERVICE STATE COLLEGE PA
900 PM EST TUE DEC 12 2017

Note: "fair" indicates few or no clouds below 12,000 feet with no
significant weather and/or obstructions to visibility.

* = STATION THAT DOES NOT REPORT PRECIPITATION /E.G. RAIN...SNOW...ETC/
    THUNDER OR FOG.

PAZ002>004-007>009-013>016-020>023-029>032-130300-
WESTERN PENNSYLVANIA

CITY           SKY/WX    TMP DP  RH WIND       PRES   REMARKS
ERIE           CLOUDY    19   7  59 W20G30    29.75F HAZE    WCI   3
MEADVILLE      LGT SNOW  12   9  87 W10       29.73F FOG     WCI  -1
FRANKLIN*      FLURRIES   9   6  88 W8        29.72  WCI  -3
NEW CASTLE     NOT AVBL
BEAVER COUNTY  PTCLDY    12   9  85 W8        29.79F WCI   1
BUTLER*        MOCLDY    12   8  84 W7        29.78S WCI   1
PITTSBURGH INT FLURRIES  18  10  71 W13       29.79F WCI   5
PITTSBURGH     FLURRIES  15   8  73 NW10G23   29.78F WCI   2
INDIANA*       CLOUDY    16   5  62 NW13G20   29.76F WCI   2
LATROBE        LGT SNOW  16  10  79 W9        29.79F WCI   4
WASHINGTON CO* CLEAR     15   5  64 W12       29.84F WCI   2
$$

PAZ004>006-010>012-017>019-024>028-033>037-041-042-045-046-049>053-130300-
CENTRAL PENNSYLVANIA

CITY           SKY/WX    TMP DP  RH WIND       PRES   REMARKS
BRADFORD       LGT SNOW  10   5  80 W9        29.57F WCI  -3
DUBOIS         MOCLDY     9   2  73 W10       29.65F WCI  -5
CLEARFIELD     CLEAR     12   3  67 W9G20     29.68F WCI   0
JOHNSTOWN      MOCLDY    11   1  64 NW21G26   29.62F WCI  -8
ALTOONA        CLOUDY    18   3  52 NW17G28   29.69S WCI   3
STATE COLLEGE  CLEAR     16   1  53 W15G29    29.69S WCI   1
WILLIAMSPORT   CLEAR     22   1  40 W17G28    29.67R WCI   8
SELINSGROVE    CLEAR     21   3  45 W15G25    29.70R WCI   8
FT INDIANTOWN  MOCLDY    23   6  47 W21G29    29.65S WCI   8
CAPITAL CITY   PTCLDY    24  -1  33 W23G31    29.69R WCI   9
HARRISBURG     MOCLDY    24   5  44 NW25G36   29.67F WCI   8
YORK           PTCLDY    23   4  44 NW21G30   29.67S WCI   8
$$

PAZ038>040-043-044-047-048-054-055-060>062-067>071-130300-
EASTERN PENNSYLVANIA

CITY           SKY/WX    TMP DP  RH WIND       PRES   REMARKS
SCRANTON       CLOUDY    25  10  53 NW16G24   29.54S WCI  12
MOUNT POCONO   CLOUDY    21   8  57 NW20G31   29.43F WCI   6
ALLENTOWN      PTCLDY    29  12  49 W20G25    29.54F
QUAKERTOWN*    PTCLDY    27  10  50 W13G20    29.55R
READING        CLEAR     26   9  48 W25G35    29.61R WCI  11
LANCASTER      CLEAR     24   5  44 NW23G37   29.64R WCI   9
COATESVILLE    CLEAR     25   7  46 NW23G36   29.60R WCI  10
POTTSTOWN      PTCLDY    26  10  50 W16G24    29.60R WCI  14
BLUE BELL      PTCLDY    28  12  50 W13G22    29.58R
DOYLESTOWN     PTCLDY    28  13  53 W17G26    29.53R
WILLOW GROVE   NOT AVBL
NORTH PHILA    MOCLDY    33  14  45 NW23G32   29.57R
PHILADELPHIA   PTCLDY    32  10  40 W22G31    29.58R
$$




USA.gov is the U.S. government's official web portal to all federal, state and local government web resources and services.